Home   Weather   Chalon-sur-Saône   Past weeks

Flag for France Past Weather in Chalon-sur-Saône, Burgundy, France — Yesterday and Last 2 Weeks

Now
23 °F

Clear.


Feels Like: 14 °F
Forecast: 17 / 29 °F
Wind: 8 mph from Northeast

Location: Dole Tavaux

Current Time: Jan 19, 2017 at 5:44:30 am

Latest Report: Jan 19, 2017 at 5:00 am


Visibility: 10 mi

Pressure: 30.36 "Hg

Humidity: 80%

Dew Point: 18 °F

Location of Chalon-sur-SaôneLocation

Past Weather in Chalon-sur-Saône — Graph

°F

Chalon-sur-Saône Temperature Yesterday

Maximum temperature yesterday: 32 °F (at 1:30 pm)
Minimum temperature yesterday: 27 °F (at 3:30 am)
Average temperature yesterday: 28 °F

High & Low Weather Summary for the Past Weeks

 TemperatureHumidityPressure
High46 °F (Jan 12, 1:00 pm)100% (Jan 4, 5:00 am)30.63 "Hg (Jan 4, 5:00 am)
Low16 °F (Jan 7, 8:00 am)55% (Jan 18, 2:00 pm)29.56 "Hg (Jan 12, 9:00 pm)
Average32 °F85%30.23 "Hg
* Reported Jan 4 4:00 am — Jan 19 4:30 am, Chalon-sur-Saône, Weather by CustomWeather, © 2017

Note: Actual official high and low records may vary slightly from our data, if they occured in-between our weather recording intervals... More about our weather records

Advertising

Chalon-sur-Saône Weather History for the Previous 24 Hours

Scroll right to see more
 ConditionsComfort  
Time TempWeatherWind HumidityBarometerVisibility
4:30 am
Thu, Jan 19
25 °FCold.10 mph74%30.36 "HgN/A
4:00 am25 °FClear.10 mph74%30.36 "Hg10 mi
3:30 am25 °FClear.12 mph74%30.36 "Hg10 mi
3:00 am25 °FClear.12 mph74%30.36 "Hg10 mi
2:30 am25 °FClear.12 mph74%30.33 "Hg10 mi
2:00 am25 °FClear.12 mph74%30.33 "Hg10 mi
1:30 am25 °FClear.13 mph74%30.33 "Hg10 mi
1:00 am25 °FClear.14 mph74%30.33 "Hg10 mi
12:30 am27 °FClear.15 mph69%30.33 "Hg10 mi
12:00 am27 °FClear.16 mph69%30.33 "Hg10 mi
11:30 pm
Wed, Jan 18
27 °FClear.14 mph69%30.33 "Hg10 mi
11:00 pm27 °FClear.14 mph69%30.36 "Hg10 mi
10:30 pm27 °FClear.12 mph69%30.36 "Hg10 mi
10:00 pm28 °FClear.14 mph64%30.36 "Hg10 mi
9:30 pm28 °FClear.17 mph64%30.36 "Hg10 mi
9:00 pm28 °FClear.15 mph64%30.36 "Hg10 mi
8:30 pm28 °FClear.10 mph64%30.36 "Hg10 mi
8:00 pm28 °FClear.14 mph64%30.36 "Hg10 mi
7:30 pm28 °FClear.12 mph64%30.36 "Hg10 mi
7:00 pm28 °FClear.16 mph64%30.39 "Hg10 mi
6:30 pm28 °FClear.18 mph64%30.36 "Hg10 mi
6:00 pm28 °FSunny.20 mph64%30.36 "Hg10 mi
5:30 pm30 °FSunny.18 mph59%30.36 "Hg10 mi
5:00 pm30 °FSunny.20 mph59%30.36 "Hg10 mi
4:30 pm30 °FSunny.22 mph59%30.36 "Hg10 mi
4:00 pm32 °FSunny.23 mph60%30.36 "Hg10 mi
3:30 pm32 °FSunny.22 mph60%30.36 "Hg10 mi
3:00 pm32 °FSunny.23 mph60%30.33 "Hg10 mi
2:30 pm32 °FSunny.22 mph60%30.33 "Hg10 mi
2:00 pm32 °FSunny.23 mph55%30.33 "Hg10 mi
1:30 pm32 °FSunny.26 mph60%30.33 "Hg10 mi
1:00 pm30 °FChilly.25 mph59%30.36 "HgN/A
9:00 am27 °FClear.23 mph64%30.33 "Hg10 mi
8:30 am27 °FClear.22 mph64%30.33 "Hg10 mi
8:00 am27 °FClear.21 mph64%30.33 "Hg10 mi
7:30 am27 °FClear.20 mph64%30.33 "Hg10 mi
7:00 am27 °FClear.24 mph64%30.30 "Hg10 mi
6:30 am27 °FClear.20 mph64%30.30 "Hg10 mi
6:00 am27 °FClear.22 mph69%30.30 "Hg10 mi
5:30 am27 °FClear.24 mph69%30.30 "Hg10 mi
5:00 am27 °FClear.24 mph69%30.30 "Hg10 mi
Weather by CustomWeather, © 2017

See weather overviewHow to use our weather pages